Weather History for KTYR - April, 2014

Change the Weather History Date:

Saturday, April 5, 2014

  Actual Average Record
Temperature  
Mean Temperature 54 °F 61 °F  
Max Temperature 58 °F 72 °F 88 °F (1978)
Min Temperature 49 °F 51 °F 27 °F (1920)
Degree Days  
Heating Degree Days 11 5  
Month to date heating degree days 15 28  
Since 1 July heating degree days 2428 2193  
Cooling Degree Days 0 1  
Month to date cooling degree days 29 5  
Year to date cooling degree days 45 38  
Growing Degree Days 4 (Base 50)    
Moisture  
Dew Point 37 °F    
Average Humidity 53    
Maximum Humidity 59    
Minimum Humidity 47    
Precipitation  
Precipitation 0.10 in 0.10 in 5.42 in (1986)
Month to date precipitation 0.18 0.51  
Year to date precipitation 6.48 11.50  
Snow  
Snow 0.00 in - - ()
Month to date snowfall 0.0  
Since 1 July snowfall 1.2  
Snow Depth 0.00 in    
Sea Level Pressure  
Sea Level Pressure 30.05 in    
Wind  
Wind Speed 9 mph (ENE)    
Max Wind Speed 17 mph    
Max Gust Speed 22 mph    
Visibility 10 miles    
Events Rain , Thunderstorm    
T = Trace of Precipitation, MM = Missing Value Source: NWS Daily Summary

Daily Weather History Graph

Daily Weather History Graph

Search for Another Location

Airport or City:

Trip Planner

Search our weather history database for the weather conditions in past years. The results will help you decide how hot, cold, wet, or windy it might be!

Date:

Astronomy

Apr. 05, 2014 Rise Set
Actual Time 7:04 AM CDT 7:44 PM CDT
Civil Twilight 6:39 AM CDT 8:09 PM CDT
Nautical Twilight 6:10 AM CDT 8:38 PM CDT
Astronomical Twilight 5:40 AM CDT 9:08 PM CDT
Moon 11:25 AM CDT (4/5) 12:43 AM CDT (4/5)
Length of Visible Light 13h 29m
Length of Day
12h 39m
Waxing Crescent, 34% of the Moon is Illuminated
Apr 5
Waxing Crescent
Apr 7
First Quarter
Apr 15
Full
Apr 22
Last Quarter
Apr 29
New

Hourly Weather History & Observations

Time (CDT) Temp. Dew Point Humidity Pressure Visibility Wind Dir Wind Speed Gust Speed Precip Events Conditions
12:53 AM 52.0 °F 36.0 °F 54% 30.10 in 10.0 mi NNE 3.5 mph - N/A   Clear
1:53 AM 52.0 °F 35.1 °F 53% 30.09 in 10.0 mi NNE 4.6 mph - N/A   Clear
2:53 AM 51.1 °F 34.0 °F 52% 30.08 in 10.0 mi NE 6.9 mph - N/A   Clear
3:53 AM 51.1 °F 32.0 °F 48% 30.08 in 10.0 mi NE 8.1 mph - N/A   Clear
4:53 AM 51.1 °F 32.0 °F 48% 30.07 in 10.0 mi NE 10.4 mph - N/A   Clear
5:53 AM 50.0 °F 32.0 °F 50% 30.07 in 10.0 mi NE 8.1 mph - N/A   Clear
6:53 AM 50.0 °F 32.0 °F 50% 30.09 in 10.0 mi NE 6.9 mph - N/A   Clear
7:53 AM 50.0 °F 33.1 °F 52% 30.12 in 10.0 mi ENE 8.1 mph - N/A   Clear
8:53 AM 50.0 °F 35.1 °F 57% 30.12 in 10.0 mi East 11.5 mph - N/A   Clear
9:53 AM 52.0 °F 36.0 °F 54% 30.14 in 10.0 mi East 9.2 mph - N/A   Clear
10:53 AM 52.0 °F 37.0 °F 57% 30.13 in 10.0 mi ENE 11.5 mph - N/A   Clear
11:53 AM 53.1 °F 37.0 °F 55% 30.13 in 10.0 mi East 6.9 mph - N/A   Partly Cloudy
12:53 PM 54.0 °F 37.9 °F 55% 30.11 in 10.0 mi ENE 8.1 mph - N/A   Overcast
1:53 PM 55.0 °F 39.0 °F 55% 30.06 in 10.0 mi NE 11.5 mph - N/A   Scattered Clouds
2:53 PM 57.0 °F 37.9 °F 49% 30.04 in 10.0 mi East 9.2 mph - N/A   Clear
3:53 PM 57.0 °F 37.9 °F 49% 30.02 in 10.0 mi ENE 11.5 mph - N/A   Clear
4:53 PM 57.0 °F 37.9 °F 49% 29.97 in 10.0 mi ENE 15.0 mph - N/A   Clear
5:53 PM 55.9 °F 37.9 °F 51% 30.00 in 10.0 mi East 9.2 mph - N/A   Clear
6:53 PM 55.0 °F 37.9 °F 53% 29.94 in 10.0 mi East 16.1 mph - N/A   Partly Cloudy
7:53 PM 54.0 °F 39.0 °F 57% 29.96 in 10.0 mi ENE 8.1 mph - N/A   Mostly Cloudy
8:53 PM 53.1 °F 39.0 °F 59% 29.97 in 10.0 mi East 6.9 mph - N/A   Scattered Clouds
9:34 PM 51.8 °F 42.8 °F 71% 30.07 in 10.0 mi Variable 4.6 mph - 0.02 in Rain , Thunderstorm Light Thunderstorms and Rain
9:53 PM 50.0 °F 43.0 °F 77% 30.00 in 9.0 mi East 8.1 mph - 0.09 in Rain , Thunderstorm Light Thunderstorms and Rain
10:53 PM 50.0 °F 44.1 °F 80% 30.00 in 10.0 mi NE 5.8 mph - 0.01 in Rain Light Rain
11:53 PM 50.0 °F 44.1 °F 80% 29.97 in 10.0 mi East 9.2 mph - 0.00 in   Overcast